sat.trackr.live / text

‹ back to catalog

ICEYE-X71

NORAD 68494 · 2026-067CG

PAYLOAD ACTIVE UNKNOWN

§ Identity

Operator
Country
FIN
Launch date
2026-03-30
Launch site
AFWTR
Launch vehicle
Mass (kg)
RCS (m²)

External: N2YO · Heavens-Above · Gunter

§ Orbital elements

Epoch: 2026-09-19T07:44:14.085600Z

Period
96.05 min
Inclination
97.7738°
Eccentricity
0.0003836
Mean motion
14.99281801 rev/d
Perigee alt
566.4 km
Apogee alt
571.8 km
Semi-major
6,947.3 km
B*
4.9956e-4
RAAN
219.4271°
Arg perigee
79.5826°
Mean anomaly
280.5829°
Rev number
2,578

§ Raw data

ICEYE-X711 68494U 26067CG  26262.32238525  .00006040  00000+0  49956-3 0  99952 68494  97.7738 219.4271 0003836  79.5826 280.5829 14.99281801 25786

JSON: /api/v1/satellites/68494 · /tle

For live sub-satellite position, see the globe view (requires WebGL).

§ Visibility from observer

Set your observer location to see the next 7 days of passes ≥ 10°. The values pass through the URL so the page stays shareable.

No JS? Fill the form by hand. The geolocation button needs JavaScript.

§ Radio — SatNOGS DB

ModeDescriptionDownlinkUplink
UNKNOWN S-band telemetry 2.264 GHz

1 transmitter · refreshed weekly from db.satnogs.org